Location: *
(37.5724°S, 58.0067°E)
Time: 01:45:37
(UTC+00:00)

X-37B - Visible Passes

Search period start: 09 December 2022 00:00
Search period end: 19 December 2022 00:00
Orbit: 277 x 277 km, 45.0° (Epoch: 01 November)

Date Brightness Start Highest point End Pass type
(mag) Time Alt. Az. Time Alt. Az. Time Alt. Az.
12 Dec 2.3 22:42:36 18° ENE 22:42:36 18° ENE 22:43:46 10° E visible
13 Dec 1.4 22:43:03 32° E 22:43:03 32° E 22:44:45 10° ESE visible
14 Dec 0.7 22:43:28 52° SE 22:43:28 52° SE 22:45:30 10° ESE visible
15 Dec 1.0 22:43:51 42° S 22:43:51 42° S 22:46:08 10° SE visible
16 Dec 1.8 22:44:13 26° SSW 22:44:28 27° SSW 22:46:42 10° SE visible
17 Dec 2.3 22:44:34 18° SW 22:45:17 20° SSW 22:47:16 10° SE visible
18 Dec 2.8 22:44:56 13° SW 22:46:08 16° S 22:47:53 10° SE visible
